This is the latest recevied weather packets stored in our database for station/object DL9TK-10. If no packets are shown the sender has not sent any weather packets the latest 10 day(s).
| Time | Temp. | Humidity | Pressure | Rain* | Wind** | Luminosity | Snow |
|---|---|---|---|---|---|---|---|
| 1777740117 | 30.56° C | 23% | 1014.3 hPa | - | - | - | - |
| 1777739217 | 31.11° C | 24% | 1014.4 hPa | - | - | - | - |
| 1777738317 | 31.11° C | 24% | 1014.5 hPa | - | - | - | - |
| 1777737417 | 31.11° C | 24% | 1014.7 hPa | - | - | - | - |
| 1777736517 | 31.67° C | 22% | 1014.8 hPa | - | - | - | - |
| 1777735617 | 31.67° C | 22% | 1015 hPa | - | - | - | - |
| 1777734717 | 32.22° C | 22% | 1014.9 hPa | - | - | - | - |
| 1777733817 | 32.22° C | 21% | 1015.1 hPa | - | - | - | - |
| 1777732917 | 32.22° C | 21% | 1015.3 hPa | - | - | - | - |
| 1777732016 | 32.22° C | 21% | 1015.5 hPa | - | - | - | - |
| 1777731116 | 32.22° C | 21% | 1015.5 hPa | - | - | - | - |
| 1777730216 | 32.22° C | 21% | 1015.7 hPa | - | - | - | - |
| 1777729316 | 31.67° C | 21% | 1015.8 hPa | - | - | - | - |
| 1777728416 | 31.67° C | 21% | 1016 hPa | - | - | - | - |
| 1777727516 | 31.67° C | 21% | 1016.2 hPa | - | - | - | - |
| 1777726616 | 31.67° C | 21% | 1016.5 hPa | - | - | - | - |
| 1777725716 | 31.11° C | 22% | 1016.6 hPa | - | - | - | - |
| 1777724816 | 30.56° C | 23% | 1016.8 hPa | - | - | - | - |
| 1777723916 | 30.56° C | 23% | 1017 hPa | - | - | - | - |
| 1777723016 | 30° C | 23% | 1017.2 hPa | - | - | - | - |
| 1777722116 | 30° C | 24% | 1017.4 hPa | - | - | - | - |
| 1777721216 | 29.44° C | 24% | 1017.6 hPa | - | - | - | - |
| 1777720316 | 28.89° C | 25% | 1017.9 hPa | - | - | - | - |
| 1777719416 | 28.89° C | 25% | 1018 hPa | - | - | - | - |
| 1777718516 | 28.33° C | 25% | 1018.2 hPa | - | - | - | - |
* Rain since midnight (hover to see other rain measurements)
** Current wind speed in m/s (hover to see current wind gust speed)